SL-8 DEB, 39838

Orbit data source: Space-Track

SL-8 DEB, 39838 is space debris in LEO originally from a launch on Tue, 12 Feb 1991 UTC launched from the Plesetsk Missile And Space Complex (PKMTR). Debris objects in space refer to the collection of defunct objects orbiting the Earth. Examples of debris include non-operational satellites, rocket bodies, and fragments generated from explosions, collisions, or faulty payload assembly.

Loading next visibility...
Identifier
39838, 1991-009DW
Orbit
LEO
Country
Flag of CISCIS
Related business
Manufacturer
Unknown
Mission
Spacecraft
Bus & Motor
Unknown
Mass
Unknown
Launch date (UTC)
1991-02-12 (35 years ago)
Launch vehicle
Unknown
Launch site
Plesetsk Missile And Space Complex (PKMTR)
Object type
Payload
Rocket body
Debris
Shape & HBR
Unknown shape, 0.1 m
Radar Cross Section
Medium (>0.1 m² and <1 m²)

Expand to show TLE details & history
Last TLE update: 1 week ago

TLE from 1 week ago
0 SL-8 DEB
1 39838U 91009DW  26164.40068142  .00000230  00000-0  24441-2 0  9996
2 39838  74.1170 211.2330 0229871 177.7168 182.4968 12.10646779288011
Epoch: 2026-06-13T09:36Z
TLE epoch observation values (Epoch: 2026-06-13T09:36:58.874Z)
Latitude
-0.00001°
Longitude
165.27138°
Altitude
1,819.901 km
Speed
6.894 km/s
True Right ascension
14h 04m 55s
True Declination
0° 00' 00"
Sunlit
Object was in daylight at epoch
Visualization orbit readout
Latitude
Unknown
Longitude
Unknown
Altitude
Unknown
Speed
Unknown
Apparent Right ascension
Unknown
Apparent Declination
Unknown
Sunlit
N/A
Visualization observer readout
Local Sidereal Time
07:01:30
Azimuth
Unknown
Elevation
Unknown
Doppler factor
Unknown
Orbital elements
Apogee altitude
1,815.531 km
Perigee altitude
1,447.298 km
Semi-major axis
8,009.552 km
Eccentricity
0.02299
Inclination
74.117°
RAAN
211.233°
Arg. of periapsis
177.7168°
True anomaly
182.38525°
Mean anomaly
182.4968°
Eccentric anomaly
182.44071°
Mean motion
3.02783 °/min
Orbital period
118.9 mins
BSTAR
0.0024441
Loading maneuver chart data...
Computing Atmospheric mass density...
Loading historical data...
Loading historical data...
Loading historical data...
Loading historical data...
Loading historical data...
Loading historical data...
Loading historical data...

Documentation

Showing up to 5 results
|